Location: Unspecified
(0.0000°N, 0.0000°E)
Time: 15:47:47
(UTC+00:00)

Vanguard 3 - Pass Details

Date: 10 December 2017
Orbit: 508 x 3264 km, 33.3° (Epoch: 16 July)

Event Time Altitude Azimuth Distance (km) Brightness Sun altitude
Rises 20:46:23 0° 308° (NW) 4,222 11.0 -39.2°
Reaches altitude 10° 20:48:43 10° 310° (NW) 3,528 10.5 -39.7°
Enters shadow 20:55:38 61° 321° (NW) 2,127 9.0 -41.2°
Exits shadow 21:14:34 12° 124° (SE) 5,632 11.2 -45.2°
Drops below altitude 10° 21:15:32 10° 124° (SE) 5,870 11.3 -45.4°
Sets 21:20:40 0° 124° (SE) 7,097 11.8 -46.4°
